Погода в Горняцком

Украина / Днепропетровская область     47°43′03″N   34°09′05″E
темп.,
°C
ветер,
м/с
пор.,
м/с
влажн.,
%
обл.,
%
осадки,
мм/ч
давл.,
гПа
погр.,
м
7 мая, пт
пт700:00+11ссв3689100 0.3 1013302
03:00+9ссз3594100 0.4 1014141
06:00+8с23930 0.0 101578
09:00+14с226558 0.0 1016538
12:00+18ююз3243100 0.0 10161513
15:00+19ю443863 0.0 10151269
18:00+18ююв464555 0.0 1013712
21:00+14юв4861100 0.0 1013150
8 мая, сб
сб800:00+14ю51271100 0.0 1012414
03:00+14ю51077100 0.1 1011373
06:00+14ю71470100 0.0 1010628
09:00+14ю61376100 0.6 1010716
12:00+16з6776100 0.4 1010879
15:00+12зсз4993100 4.2 1012529
18:00+11сз51083100 6.4 1014689
21:00+10сз41175100 6.6 1015468
9 мая, вс
вс900:00+8ссз71273100 0.0 1016750
03:00+6ссз51280100 0.0 1018585
06:00+5сз614880 0.0 1019577
09:00+10ссз811635 0.0 10211284
12:00+13ссз811405 0.0 10222049
15:00+14ссз91138100 0.0 10232911
18:00+13ссз79515 0.0 10241986
21:00+9ссз410665 0.0 1026228
10 мая, пн
пн1000:00+7ссз47734 0.0 1026117
03:00+6ссз36720 0.0 102798
06:00+5ссз48750 0.0 1027170
09:00+12с68510 0.0 10271198
12:00+15ссз78382 0.0 10251974
15:00+16с793875 0.0 10232154
18:00+14с71150100 0.0 10221212
21:00+13ссз71253100 0.0 10211023
11 мая, вт
вт1100:00+12с81461100 0.1 1019873
03:00+12с81463100 0.1 1018608
06:00+10с71576100 0.0 1017481
09:00+13с71476100 0.0 1016543
12:00+19с11156372 0.0 10151496
15:00+12св812733 0.6 1016976
18:00+13св914625 0.0 10171658
21:00+9всв8147840 0.0 1018932